Regional Weather Roundup
Issued by NWS Little Rock, AR

Home | Current Version | Previous Version | Graphics & Text | Print | Product List | Glossary On
Versions: 1 2 3 4 5 6 7 8 9 10 11 12 13 14 15 16 17 18 19 20 21 22 23 24 25 26 27 28 29 30 31 32 33 34 35 36 37 38 39 40 41 42 43 44 45 46 47 48 49 50
000
ASUS44 KLZK 020605
RWRLZK

WEATHER ROUNDUP FOR ARKANSAS
NATIONAL WEATHER SERVICE LITTLE ROCK AR
100 AM CDT WED SEP 02 2015

NOTE: "FAIR" INDICATES FEW OR NO CLOUDS BELOW 12,000 FEET WITH NO
SIGNIFICANT WEATHER AND/OR OBSTRUCTIONS TO VISIBILITY.

ARZ001-003-010-029-020700-
NORTHWEST ARKANSAS

CITY           SKY/WX    TMP DP  RH WIND       PRES   REMARKS
FAYETTEVILLE   FAIR      68  67  96 S3        30.09F
6HR MIN TEMP:  67; 6HR MAX TEMP:  82;

FORT SMITH     FAIR      74  67  78 E5        30.05S
6HR MIN TEMP:  73; 6HR MAX TEMP:  90;

HARRISON       FAIR      71  64  78 S3        30.12S
6HR MIN TEMP:  68; 6HR MAX TEMP:  82;

BENTONVILLE    FAIR      72  63  73 S3        30.10S
6HR MIN TEMP:  72; 6HR MAX TEMP:  84;

ROGERS         FAIR      72  67  84 SE6       30.10F
6HR MIN TEMP:  72; 6HR MAX TEMP:  83;

SILOAM SPGS    FAIR      72  63  73 SE5       30.07S
6HR MIN TEMP:  72; 6HR MAX TEMP:  82;

HIGHFILL       FAIR      72  67  84 S3        30.09S
6HR MIN TEMP:  72; 6HR MAX TEMP:  83;

$$

ARZ004-005-016-020700-
NORTH CENTRAL ARKANSAS

CITY           SKY/WX    TMP DP  RH WIND       PRES   REMARKS
BATESVILLE     FAIR      72  70  94 CALM      30.08S
6HR MIN TEMP:  72; 6HR MAX TEMP:  84;

FLIPPIN        FAIR      70  64  83 CALM      30.08S
6HR MIN TEMP:  70; 6HR MAX TEMP:  84;

MTN HOME       FAIR      71  70  96 CALM      30.10S
6HR MIN TEMP:  71; 6HR MAX TEMP:  83;

$$

ARZ040-041-020700-
WEST CENTRAL ARKANSAS

CITY           SKY/WX    TMP DP  RH WIND       PRES   REMARKS
MENA           FAIR      70  68  94 CALM      30.10S
MOUNT IDA      FAIR      69  66  90 CALM      30.06S
6HR MIN TEMP:  69; 6HR MAX TEMP:  92;

$$

ARZ009-017-025-026-028-020700-
NORTHEAST ARKANSAS

CITY           SKY/WX    TMP DP  RH WIND       PRES   REMARKS
JONESBORO      FAIR      72  71  97 CALM      30.07F
6HR MIN TEMP:  70; 6HR MAX TEMP:  83;

NEWPORT        FAIR      74  71  90 CALM      30.08F
6HR MIN TEMP:  74; 6HR MAX TEMP:  82;

WALNUT RIDGE   FAIR      73  68  83 CALM      30.08S
6HR MIN TEMP:  73; 6HR MAX TEMP:  84;

BLYTHEVILLE    FAIR      75  72  90 CALM      30.08F
6HR MIN TEMP:  75; 6HR MAX TEMP:  84;

$$

ARZ022-023-033-042-044-020700-
CENTRAL ARKANSAS

CITY           SKY/WX    TMP DP  RH WIND       PRES   REMARKS
LITTLE ROCK    FAIR      76  70  82 CALM      30.07S
6HR MIN TEMP:  75; 6HR MAX TEMP:  89;

N LITTLE ROCK    N/A     76  71  84 CALM      30.07S
6HR MIN TEMP:  76; 6HR MAX TEMP:  87;

JACKSONVILLE   FAIR      74  69  87 CALM      30.06S
6HR MIN TEMP:  72; 6HR MAX TEMP:  89;

SEARCY         FAIR      73  72  96 CALM      30.08S
6HR MIN TEMP:  73; 6HR MAX TEMP:  87;

HOT SPRINGS    FAIR      72  65  78 CALM      30.08S
6HR MIN TEMP:  71; 6HR MAX TEMP:  87;

RUSSELLVILLE   FAIR      70  66  87 CALM      30.07R
6HR MIN TEMP:  70; 6HR MAX TEMP:  87;

$$

ARZ036-020700-
EAST ARKANSAS

CITY           SKY/WX    TMP DP  RH WIND       PRES   REMARKS
WEST MEMPHIS   FAIR      75  73  93 CALM      30.06F
6HR MIN TEMP:  74; 6HR MAX TEMP:  81;

$$

ARZ050-053-066-070-073-020700-
SOUTHWEST ARKANSAS

CITY           SKY/WX    TMP DP  RH WIND       PRES   REMARKS
ARKADELPHIA    FAIR      69  68  97 CALM      30.06F
6HR MIN TEMP:  69; 6HR MAX TEMP:  89;

CAMDEN         FAIR      72  68  88 CALM      30.06S FOG
TEXARKANA      FAIR      74  69  85 S3        30.06F
6HR MIN TEMP:  74; 6HR MAX TEMP:  86;

EL DORADO      FAIR      71  69  93 CALM      30.06F
6HR MIN TEMP:  71; 6HR MAX TEMP:  86;

DE QUEEN       FAIR      71  70  96 CALM      30.05S
6HR MIN TEMP:  70; 6HR MAX TEMP:  88;

$$

ARZ056-057-069-020700-
SOUTHEAST ARKANSAS

CITY           SKY/WX    TMP DP  RH WIND       PRES   REMARKS
PINE BLUFF     FAIR      74  69  85 CALM      30.06F
6HR MIN TEMP:  72; 6HR MAX TEMP:  87;

STUTTGART      FAIR      79  70  73 E3        30.07S
6HR MIN TEMP:  75; 6HR MAX TEMP:  88;

MONTICELLO     FAIR      76  72  87 CALM      30.06S
6HR MIN TEMP:  74; 6HR MAX TEMP:  88;


$$





USA.gov is the U.S. government's official web portal to all federal, state and local government web resources and services.